FREPRT-WX Weather Reports


time (UTC)temp
C
wind
direction
speed
KPH
gust
KPH
rain 1hr
cm
rain 24hr
cm
rain mn
cm
humidity
%
barometer
mb
20260505153102 11 276 22.5 0.0 0.00 0.00 0.00 46 977.9
20260505151540 11 276 22.5 0.0 0.00 0.00 0.00 46 977.9
20260505150119 11 276 22.5 0.0 0.00 0.00 0.00 46 977.9
20260505140119 10 269 16.1 0.0 0.00 0.00 0.00 54 977.9
20260505130112 11 304 16.1 0.0 0.00 0.00 0.00 63 977.7
20260505124539 10 312 12.9 0.0 0.00 0.00 0.00 70 976.9
20260505123059 10 307 14.5 0.0 0.00 0.00 0.00 69 975.4
20260505121539 10 302 14.5 0.0 0.00 0.00 0.00 69 975.4
20260505120123 10 288 16.1 0.0 0.00 0.00 0.00 69 975.4
20260505114540 10 281 14.5 0.0 0.00 0.00 0.00 68 975.3
20260505113057 10 286 14.5 0.0 0.00 0.00 0.00 66 973.8
20260505111540 10 281 11.3 0.0 0.00 0.00 0.00 66 973.8
20260505110116 10 270 9.7 0.0 0.00 0.00 0.00 66 973.8
20260505101539 10 259 16.1 0.0 0.00 0.00 0.00 57 972.3
20260505100115 10 263 17.7 0.0 0.00 0.00 0.00 57 972.3
20260505094539 10 260 16.1 0.0 0.00 0.00 0.00 68 972.6
20260505093102 10 264 12.9 0.0 0.00 0.00 0.00 65 972.3
20260505091539 10 256 19.3 0.0 0.00 0.00 0.00 65 972.2
20260505090118 10 239 9.7 0.0 0.00 0.00 0.00 65 972.2
20260505084538 11 260 16.1 0.0 0.00 0.00 0.00 75 972.7
20260505083058 11 256 16.1 0.0 0.00 0.00 0.00 75 972.0
20260505081539 11 254 16.1 0.0 0.00 0.00 0.00 75 972.0
20260505080110 12 254 17.7 0.0 0.00 0.00 0.00 67 972.2
20260505074540 12 245 19.3 0.0 0.00 0.00 0.00 76 971.4
20260505073100 12 233 16.1 0.0 0.00 0.00 0.00 76 971.4
20260505071540 13 224 19.3 0.0 0.00 0.00 0.00 76 971.5
20260505070112 13 226 19.3 0.0 0.00 0.00 0.00 76 971.5
20260505064539 13 235 16.1 0.0 0.00 0.00 0.00 77 972.1
20260505063056 13 231 19.3 0.0 0.00 0.00 0.00 74 971.5
20260505061540 13 234 19.3 0.0 0.00 0.00 0.00 74 971.5
20260505060120 14 233 17.7 0.0 0.00 0.00 0.00 74 971.5
20260505054540 14 243 14.5 0.0 0.00 0.00 0.00 74 972.6
20260505053103 14 230 19.3 0.0 0.00 0.00 0.00 66 971.2
20260505051539 15 231 19.3 0.0 0.00 0.00 0.00 66 971.3
20260505050109 15 232 20.9 0.0 0.00 0.00 0.00 66 971.3
20260505041539 16 237 14.5 0.0 0.00 0.00 0.00 62 971.4
20260505040115 16 225 19.3 0.0 0.00 0.00 0.00 62 971.4
20260505034536 16 216 19.3 0.0 0.00 0.00 0.00 61 971.0
20260505033059 16 206 22.5 0.0 0.00 0.00 0.00 65 971.0
20260505031539 16 209 25.7 0.0 0.00 0.00 0.00 65 971.0
20260505030111 16 207 24.1 0.0 0.00 0.00 0.00 65 971.0
20260505024539 17 204 25.7 0.0 0.00 0.00 0.00 54 971.3
20260505023059 17 212 30.6 0.0 0.00 0.00 0.00 55 971.4
20260505021538 17 211 29.0 0.0 0.00 0.00 0.00 55 971.4
20260505020111 17 209 30.6 0.0 0.00 0.00 0.00 55 971.4
20260505014539 17 207 29.0 0.0 0.00 0.00 0.00 45 970.5
20260505013057 17 209 30.6 0.0 0.00 0.00 0.00 45 970.5
20260505011539 17 212 25.7 0.0 0.00 0.00 0.00 45 970.5
20260505010107 18 202 19.3 0.0 0.00 0.00 0.00 45 970.5
20260505004539 18 207 14.5 0.0 0.00 0.00 0.00 42 971.1
20260505003056 18 198 12.9 0.0 0.00 0.00 0.00 42 971.9
20260505001538 18 198 11.3 0.0 0.00 0.00 0.00 42 971.9
20260505000115 20 213 9.7 0.0 0.00 0.00 0.00 42 971.9
20260504234539 20 227 12.9 0.0 0.00 0.00 0.00 35 971.8
20260504233057 20 241 16.1 0.0 0.00 0.00 0.00 35 971.7
20260504231538 21 248 19.3 0.0 0.00 0.00 0.00 35 971.6
20260504230105 21 247 20.9 0.0 0.00 0.00 0.00 35 971.6
20260504224539 21 252 25.7 0.0 0.00 0.00 0.00 37 971.3
20260504223059 22 251 29.0 0.0 0.00 0.00 0.00 36 971.7
20260504221538 22 246 29.0 0.0 0.00 0.00 0.00 36 971.6
20260504220114 22 247 27.4 0.0 0.00 0.00 0.00 36 971.6
20260504214537 22 243 30.6 0.0 0.00 0.00 0.00 36 972.7
20260504213100 22 243 30.6 0.0 0.00 0.00 0.00 36 972.7
20260504211538 22 243 33.8 0.0 0.00 0.00 0.00 38 971.7
20260504210111 22 238 33.8 0.0 0.00 0.00 0.00 38 971.6
20260504204543 22 237 32.2 0.0 0.00 0.00 0.00 37 972.5
20260504203054 22 235 30.6 0.0 0.00 0.00 0.00 37 972.5
20260504201544 22 239 32.2 0.0 0.00 0.00 0.00 37 972.5
20260504200108 22 226 30.6 0.0 0.00 0.00 0.00 40 971.7
20260504194544 23 229 30.6 0.0 0.00 0.00 0.00 34 972.6
20260504193103 23 228 30.6 0.0 0.00 0.00 0.00 34 972.6
20260504191545 22 227 30.6 0.0 0.00 0.00 0.00 34 972.6
20260504190112 22 225 32.2 0.0 0.00 0.00 0.00 34 972.6
20260504184540 22 222 29.0 0.0 0.00 0.00 0.00 27 973.6
20260504183104 22 228 29.0 0.0 0.00 0.00 0.00 31 973.3
20260504181544 22 230 27.4 0.0 0.00 0.00 0.00 31 973.3
20260504180119 22 232 29.0 0.0 0.00 0.00 0.00 31 973.3
20260504174543 22 233 29.0 0.0 0.00 0.00 0.00 34 974.2
20260504173059 21 229 29.0 0.0 0.00 0.00 0.00 38 974.0
20260504171542 21 231 30.6 0.0 0.00 0.00 0.00 38 974.0
20260504170109 21 227 30.6 0.0 0.00 0.00 0.00 34 973.8
20260504160115 19 220 25.7 0.0 0.00 0.00 0.00 44 974.3